Location: Newark
(34.3481°N, 134.0494°E)
Time: 04:32:39
(UTC+00:00)

Vanguard 3 - Pass Details

Date: 28 January 2020
Orbit: 508 x 3263 km, 33.3° (Epoch: 16 February)

Event Time Altitude Azimuth Distance (km) Brightness Sun altitude
Rises 12:44:34 0° 284° (WNW) 7,158 12.6 -52.6°
Reaches altitude 10° 12:49:46 10° 282° (WNW) 5,968 12.0 -53.6°
Enters shadow 13:02:30 47° 257° (WSW) 3,086 10.0 -56.1°
Maximum altitude 13:06:52 60° 209° (SSW) 2,494 - -57.0°
Drops below altitude 10° 13:17:05 10° 132° (SE) 3,728 - -58.9°
Sets 13:19:34 0° 128° (SE) 4,412 - -59.4°
